Weather in Nurafshon

Uzbekistan     41°02′33″N   69°21′27″E
temp.,
°C
wind,
m/s
gust,
m/s
humid.,
%
clouds,
%
prec.,
mm/h
press.,
hPa
HPBL,
m
10 april, sat
sat1023:00+15ene33415 0.0 101733
02:00+14ene34425 0.0 101641
05:00+13e33434 0.0 101625
08:00+16se22395 0.0 1018123
11:00+22wsw01270 0.0 1017755
14:00+25nw33200 0.0 10162021
17:00+24nw33230 0.0 10161788
20:00+18nnw33370 0.0 101733
11 april, sun
sun1123:00+16e12410 0.0 101711
02:00+15ese22440 0.0 101615
05:00+13w22500 0.0 101713
08:00+14wnw33500 0.0 1019261
11:00+17wnw43320 0.0 1020796
14:00+19wnw33280 0.0 10191115
17:00+18wnw33290 0.0 10181105
20:00+13nw46480 0.0 101995
12 april, mon
mon1223:00+12ne11532 0.0 101811
02:00+11ene11580 0.1 101710
05:00+9nnw22620 0.2 101819
08:00+11nnw21495 0.0 1019209
11:00+16w32375 0.0 1018738
14:00+19wnw333576 0.0 1017968
17:00+19nw3238100 0.0 1016967
20:00+14nw355665 0.3 101778
13 april, tue
tue1323:00+13n2261100 0.5 101742
02:00+13ene1164100 0.0 101711
05:00+13ssw2261100 0.0 101925
08:00+14ssw2363100 0.0 1020199
11:00+15ssw2370100 0.1 1020325
14:00+18sw2260100 0.0 1019493
17:00+18ssw3358100 0.3 1019442
20:00+16ssw4664100 0.4 1020118
14 april, wed
wed1423:00+15ese235971 0.4 101958
02:00+13ene3463100 0.0 101876
05:00+13ne1263100 0.0 101811
08:00+17s1358100 0.0 1017147
11:00+22nne113494 0.1 1015989
14:00+24nnw22305 0.0 10131743
17:00+24nnw43335 0.0 10121504
20:00+17ne22576 0.2 101227